[[{"header":{"parameterUnit":"m.s-1","parameterCategory":1,"la1":30.2991,"la2":30.254,"lo1":-89.0895,"lo2":-89.0444,"dy":0.0017,"dx":0.0017,"nx":28,"ny":28,"refTime":"2024-12-15T03:00:00:Z","depth":0,"parameterNumber":2,"parameterNumberName":"U-component_of_WINDS"},"data":[0,0,0,0,0,0,0,0,0,0,0,0,0,0,0,0,0,0,0,0,0,0,0,0,0,0,0,0,0,0,0,0,0,0,0,0,0,0,0,0,0,0,0,0,0,0,0,0,0,0,0,0,0,0,0,0,0,0,-3.7569,-3.7569,0,-3.7585,-3.7585,-3.7585,-3.7513,-3.7511,-3.7509,-3.7507,-3.7525,-3.7528,-3.753,0,0,0,0,0,0,0,0,0,0,0,0,0,-3.7479,-3.7481,-3.7569,-3.7569,-3.7569,-3.7585,-3.7585,-3.7585,-3.7514,-3.7511,-3.7509,-3.7506,-3.7524,-3.7527,-3.753,0,0,0,0,0,0,0,0,0,0,0,0,0,-3.7509,-3.7482,-3.7569,-3.7535,-3.7532,-3.7585,-3.7585,-3.7585,-3.7514,-3.7511,-3.7508,-3.7505,-3.7523,-3.7527,-3.7531,-3.7616,0,0,-3.7542,-3.7543,0,0,0,0,0,0,0,0,-3.7508,-3.7513,-3.754,-3.7538,-3.7535,-3.7544,-3.756,-3.7596,-3.7515,-3.7521,-3.7507,-3.7503,-3.7534,-3.7537,-3.7547,-3.7617,-3.7618,-3.7542,-3.7544,-3.7546,-3.7547,0,0,0,0,0,0,0,-3.7506,-3.7511,-3.7575,-3.7541,-3.7537,-3.7521,-3.7521,-3.7566,-3.7545,-3.752,-3.7515,-3.7518,-3.7532,-3.7543,-3.7546,-3.7618,-3.7542,-3.7545,-3.7547,-3.7549,-3.7761,-3.7765,0,0,0,0,0,0,-3.7508,-3.751,-3.7574,-3.7575,-3.7513,-3.7525,-3.7526,-3.7544,-3.7544,-3.7541,-3.7521,-3.7515,-3.7539,-3.7542,-3.7547,-3.7648,-3.7546,-3.7549,-3.7551,-3.7758,-3.7762,-3.7766,0,0,0,0,0,0,-3.7506,-3.7514,-3.7574,-3.7541,-3.7548,-3.753,-3.7551,-3.7546,-3.7557,-3.7545,-3.7541,-3.7536,-3.7536,-3.7542,-3.76,-3.7648,-3.7551,-3.7554,-3.7754,-3.7759,-3.7764,-3.785,0,0,0,0,0,0,-3.7504,-3.7514,-3.7545,-3.7543,-3.755,-3.7626,-3.7554,-3.7549,-3.7563,-3.7556,-3.7558,-3.7555,-3.7534,-3.7595,-3.7603,-3.7651,-3.7557,-3.775,-3.7756,-3.7762,-3.7843,-3.7858,-3.7871,0,0,0,0,0,-3.7501,-3.7569,-3.7547,-3.7555,-3.7589,-3.7629,-3.7633,-3.7607,-3.7567,-3.76,-3.7592,-3.7555,-3.7641,-3.7601,-3.761,-3.766,-3.7746,-3.7754,-3.7762,-3.7837,-3.7855,-3.787,0,0,0,0,0,0,-3.7577,-3.7568,-3.7544,-3.7613,-3.7622,-3.7616,-3.7656,-3.7626,-3.7647,-3.7639,-3.7606,-3.7608,-3.7672,-3.7671,-3.7627,-3.7744,-3.7687,-3.7697,-3.7741,-3.7758,-3.7771,-3.777,-3.756,0,0,0,0,0,-3.7602,-3.7635,-3.7625,-3.7687,-3.7693,-3.7674,-3.769,-3.767,-3.7678,-3.7682,-3.7678,-3.7689,-3.7718,-3.7738,-3.7764,-3.7843,-3.7843,-3.7882,-3.7896,-3.7907,-3.7916,-3.7959,-3.7977,-3.7792,-3.7791,-3.7791,0,0,-3.7654,-3.7653,-3.7675,-3.7702,-3.7707,-3.7743,-3.7678,-3.7717,-3.7744,-3.7688,-3.7743,-3.7741,-3.775,-3.782,-3.785,-3.7822,-3.7967,-3.7917,-3.7926,-3.7929,-3.7969,-3.7987,-3.8002,-3.7797,-3.7796,-3.7795,0,0,-3.7766,-3.7769,-3.7821,-3.7828,-3.7836,-3.7823,-3.7836,-3.7835,-3.7832,-3.7886,-3.7846,-3.7877,-3.7928,-3.7937,-3.7949,-3.8068,-3.8035,-3.8077,-3.8148,-3.8191,-3.8206,-3.8218,-3.8262,-3.8278,-3.8086,-3.8086,-3.8087,0,-3.783,-3.7881,-3.7852,-3.7895,-3.7909,-3.786,-3.7914,-3.7922,-3.7939,-3.795,-3.7918,-3.7982,-3.7985,-3.8057,-3.8086,-3.8097,-3.8111,-3.8076,-3.8206,-3.8218,-3.823,-3.8271,-3.8287,-3.8092,-3.8091,-3.809,-3.809,0,-3.7959,-3.7995,-3.8037,-3.8055,-3.8073,-3.8122,-3.8101,-3.8124,-3.8103,-3.8094,-3.8151,-3.8153,-3.818,-3.8195,-3.8174,-3.8265,-3.8247,-3.8211,-3.8154,-3.8253,-3.8291,-3.8307,-3.8099,-3.8097,-3.8096,-3.8094,0,0,-3.8118,-3.8121,-3.8136,-3.8145,-3.8151,-3.8179,-3.8227,-3.8253,-3.8274,-3.8288,-3.8327,-3.8373,-3.834,-3.8353,-3.8333,-3.8371,-3.8466,-3.833,-3.833,-3.8356,-3.8568,-3.8595,-3.8614,-3.8445,-3.8448,-3.845,-3.8567,0,-3.8229,-3.8308,-3.8285,-3.8366,-3.84,-3.8356,-3.8397,-3.8407,-3.8401,-3.843,-3.8423,-3.8456,-3.841,-3.8418,-3.8453,-3.8447,-3.8509,-3.8439,-3.8483,-3.8485,-3.8482,-3.8633,-3.8662,-3.8772,-3.8582,-3.8584,-3.8586,0,-3.8368,-3.8388,-3.8472,-3.8475,-3.8488,-3.8526,-3.8549,-3.8577,-3.8588,-3.8581,-3.8597,-3.857,-3.8618,-3.8561,-3.8628,-3.8581,-3.8598,-3.8598,-3.8602,-3.8605,-3.8541,-3.8641,-3.8806,-3.8823,-3.8609,-3.8607,-3.8606,0,-3.8476,-3.8524,-3.8581,-3.859,-3.8594,-3.8622,-3.8626,-3.8633,-3.8651,-3.8672,-3.8684,-3.871,-3.8724,-3.8746,-3.8728,-3.8688,-3.8798,-3.8739,-3.8795,-3.8795,-3.8819,-3.8818,-3.899,-3.883,-3.883,-3.883,-3.8829,0,-3.8602,-3.8656,-3.863,-3.8665,-3.8725,-3.8699,-3.8758,-3.8757,-3.8765,-3.88,-3.8763,-3.8797,-3.8771,-3.8803,-3.8789,-3.8848,-3.8854,-3.8851,-3.8847,-3.8854,-3.8855,-3.8865,-3.8857,-3.8834,-3.8833,-3.8832,-3.8831,0,-3.8733,-3.8718,-3.8777,-3.8778,-3.8779,-3.8823,-3.8824,-3.8857,-3.8849,-3.8894,-3.8903,-3.8891,-3.8927,-3.8912,-3.895,-3.894,-3.9016,-3.9001,-3.9012,-3.9008,-3.9065,-3.906,-3.9249,-3.9273,-3.9098,-3.91,-3.9101,0,-3.8814,-3.8854,-3.886,-3.888,-3.8887,-3.892,-3.8939,-3.8915,-3.8936,-3.8953,-3.8985,-3.9018,-3.9043,-3.9104,-3.9099,-3.9128,-3.9115,-3.9179,-3.9119,-3.9126,-3.9117,-3.9115,-3.9119,-3.9191,-3.9193,-3.9195,-3.9196,0,-3.896,-3.8951,-3.8979,-3.9005,-3.9029,-3.9048,-3.9064,-3.9084,-3.9061,-3.9087,-3.9124,-3.9143,-3.9183,-3.9217,-3.9244,-3.9248,-3.9219,-3.9215,-3.923,-3.9238,-3.9243,-3.9242,-3.9045,-3.9211,-3.9209,-3.9208,-3.9207,-3.9207,-3.9069,-3.9103,-3.9113,-3.9146,-3.9156,-3.9173,-3.9205,-3.9201,-3.9231,-3.9261,-3.9246,-3.929,-3.9302,-3.9334,-3.9343,-3.9378,-3.9353,-3.9373,-3.9379,-3.9384,-3.9392,-3.9238,-3.9383,-3.9382,-3.9382,-3.9381,-3.9381,0,-3.9214,-3.9218,-3.9249,-3.9273,-3.93,-3.927,-3.9288,-3.9312,-3.935,-3.9364,-3.939,-3.9434,-3.9467,-3.9466,-3.9497,-3.9525,-3.9513,-3.9534,-3.9532,-3.9534,-3.9413,-3.9397,-3.9544,-3.9544,-3.9544,-3.9544,-3.9544,-3.9544,-3.9292,-3.9349,-3.9342,-3.9405,-3.9409,-3.9451,-3.9464,-3.948,-3.9491,-3.9541,-3.9569,-3.9568,-3.9576,-3.9608,-3.9638,-3.9637,-3.9651,-3.9678,-3.9672,-3.9558,-3.9542,-3.9527,-3.9512,-3.9681,-3.9681,-3.979,-3.9791,-3.9792]},{"header":{"parameterUnit":"m.s-1","parameterCategory":1,"la1":30.2991,"la2":30.254,"lo1":-89.0895,"lo2":-89.0444,"dy":0.0017,"dx":0.0017,"nx":28,"ny":28,"refTime":"2024-12-15T03:00:00:Z","depth":0,"parameterNumber":3,"parameterNumberName":"V-component_of_WINDS"},"data":[0,0,0,0,0,0,0,0,0,0,0,0,0,0,0,0,0,0,0,0,0,0,0,0,0,0,0,0,0,0,0,0,0,0,0,0,0,0,0,0,0,0,0,0,0,0,0,0,0,0,0,0,0,0,0,0,0,0,1.0439,1.0438,0,1.0377,1.0376,1.0376,1.0329,1.0329,1.0328,1.0328,1.0265,1.0264,1.0263,0,0,0,0,0,0,0,0,0,0,0,0,0,1.0519,1.0518,1.0439,1.0438,1.0437,1.0377,1.0376,1.0375,1.0329,1.0329,1.0328,1.0328,1.0266,1.0264,1.0262,0,0,0,0,0,0,0,0,0,0,0,0,0,1.0474,1.0518,1.0439,1.0407,1.0404,1.0377,1.0376,1.0375,1.0329,1.0329,1.0328,1.0328,1.0266,1.0264,1.0262,1.0263,0,0,1.0256,1.0256,0,0,0,0,0,0,0,0,1.0476,1.0471,1.0413,1.0409,1.0405,1.036,1.0381,1.0338,1.033,1.0358,1.0328,1.0327,1.0297,1.0293,1.0282,1.026,1.0257,1.0256,1.0255,1.0254,1.0254,0,0,0,0,0,0,0,1.0479,1.0473,1.0414,1.0412,1.0407,1.0396,1.0389,1.0373,1.0332,1.0355,1.0352,1.0345,1.0295,1.0284,1.0281,1.0256,1.0256,1.0255,1.0253,1.0253,1.0234,1.0235,0,0,0,0,0,0,1.0487,1.0476,1.0416,1.0412,1.044,1.0396,1.0388,1.0375,1.0332,1.0324,1.0345,1.0343,1.0288,1.0283,1.0278,1.0278,1.0254,1.0252,1.0251,1.0233,1.0234,1.0235,0,0,0,0,0,0,1.0489,1.0482,1.0419,1.0443,1.0434,1.0395,1.0381,1.0374,1.0364,1.0324,1.0317,1.0342,1.0287,1.0281,1.0268,1.0275,1.0252,1.025,1.0233,1.0234,1.0234,1.0276,0,0,0,0,0,0,1.0492,1.0483,1.0483,1.0444,1.0433,1.0409,1.0382,1.0374,1.036,1.0356,1.0319,1.0312,1.0286,1.0271,1.0266,1.0272,1.0248,1.0232,1.0233,1.0234,1.0274,1.0279,1.0283,0,0,0,0,0,1.0495,1.0496,1.0483,1.0476,1.0431,1.0409,1.0403,1.0373,1.0361,1.0361,1.0336,1.0314,1.0275,1.027,1.0264,1.027,1.0231,1.0233,1.0234,1.0272,1.0278,1.0282,0,0,0,0,0,0,1.0537,1.0491,1.0475,1.0464,1.0441,1.0401,1.0399,1.0379,1.0359,1.0357,1.032,1.0312,1.0303,1.0285,1.028,1.0269,1.025,1.0251,1.0282,1.0286,1.0291,1.0296,1.0247,0,0,0,0,0,1.0545,1.053,1.0491,1.0485,1.0474,1.0439,1.0428,1.0407,1.0382,1.0372,1.0346,1.0323,1.0306,1.0295,1.0277,1.0271,1.0264,1.0272,1.0277,1.028,1.0281,1.028,1.0284,1.024,1.024,1.024,0,0,1.0561,1.0534,1.0527,1.0493,1.0472,1.0459,1.0431,1.0417,1.0408,1.037,1.0356,1.0337,1.0308,1.03,1.0294,1.0284,1.0292,1.0282,1.0285,1.0284,1.0282,1.0286,1.029,1.0241,1.0241,1.024,0,0,1.0584,1.0561,1.0555,1.0536,1.0506,1.0483,1.0482,1.0445,1.0431,1.0417,1.0389,1.0377,1.0348,1.0329,1.0316,1.0335,1.0315,1.033,1.0353,1.0351,1.0355,1.0358,1.0366,1.037,1.0331,1.0331,1.0332,0,1.0608,1.0586,1.0554,1.0543,1.053,1.0496,1.049,1.0473,1.0439,1.0431,1.0419,1.0383,1.0362,1.035,1.0355,1.0344,1.0343,1.0335,1.0357,1.0359,1.0362,1.037,1.0373,1.0334,1.0333,1.0333,1.0333,0,1.0618,1.0604,1.0603,1.0571,1.0558,1.0549,1.0517,1.0508,1.0488,1.0467,1.0454,1.0428,1.0404,1.04,1.038,1.0386,1.038,1.0363,1.0344,1.0369,1.0376,1.0378,1.0337,1.0336,1.0335,1.0335,0,0,1.0664,1.0618,1.0618,1.0604,1.057,1.0558,1.055,1.0527,1.0521,1.0499,1.0491,1.0468,1.0453,1.0439,1.0417,1.0416,1.0435,1.0399,1.0398,1.0408,1.0442,1.0456,1.046,1.0422,1.0422,1.0422,1.0445,0,1.0683,1.0665,1.0637,1.0629,1.0617,1.0585,1.0578,1.0556,1.0537,1.0524,1.0502,1.0488,1.0468,1.0459,1.0456,1.0434,1.0442,1.0431,1.0416,1.0415,1.0425,1.0463,1.0477,1.05,1.0447,1.0448,1.0448,0,1.0702,1.0683,1.0674,1.0643,1.0637,1.063,1.0609,1.0597,1.0573,1.0559,1.0544,1.0521,1.0512,1.0494,1.0481,1.0475,1.0467,1.0455,1.0455,1.0453,1.0434,1.0464,1.0506,1.051,1.0451,1.0451,1.0451,0,1.0739,1.0711,1.0703,1.0692,1.0655,1.0652,1.0636,1.0612,1.0601,1.0583,1.0576,1.0556,1.0546,1.0532,1.0506,1.0495,1.0497,1.0476,1.0486,1.0487,1.0488,1.0489,1.0531,1.0481,1.0481,1.0481,1.0481,0,1.0764,1.076,1.0719,1.0714,1.0709,1.0678,1.0674,1.0656,1.0635,1.0627,1.0598,1.0591,1.0555,1.0544,1.0523,1.0517,1.0512,1.0502,1.0496,1.0505,1.0507,1.05,1.0498,1.0482,1.0482,1.0481,1.0481,0,1.0804,1.0777,1.0766,1.0732,1.0724,1.0722,1.0694,1.0689,1.0668,1.0658,1.0654,1.0622,1.0608,1.058,1.0557,1.0543,1.0543,1.0532,1.0551,1.0548,1.0561,1.0561,1.0601,1.0606,1.0552,1.0552,1.0553,0,1.0822,1.0818,1.0785,1.0778,1.0764,1.0752,1.0742,1.0711,1.0702,1.0676,1.0674,1.0658,1.0643,1.0623,1.0598,1.0582,1.0571,1.0587,1.0569,1.0578,1.0574,1.0575,1.0575,1.0591,1.0592,1.0593,1.0593,0,1.0857,1.0845,1.083,1.0813,1.0801,1.0786,1.0768,1.0764,1.073,1.0721,1.0707,1.0696,1.0674,1.0659,1.064,1.0624,1.0604,1.0599,1.0601,1.061,1.0622,1.0618,1.0564,1.0598,1.0598,1.0597,1.0597,1.0597,1.0888,1.0884,1.0861,1.0847,1.0832,1.0817,1.0811,1.0791,1.0778,1.0759,1.0742,1.073,1.0708,1.068,1.0666,1.0657,1.0646,1.0648,1.0649,1.0651,1.0655,1.0623,1.0653,1.0653,1.0652,1.0652,1.0652,0,1.0923,1.0907,1.0895,1.0873,1.0863,1.0844,1.0825,1.0818,1.0808,1.0789,1.0776,1.0761,1.0747,1.0722,1.0706,1.0704,1.0694,1.0701,1.0702,1.0699,1.0664,1.0665,1.0709,1.0709,1.0709,1.0709,1.0709,1.0709,1.094,1.0934,1.0919,1.0906,1.089,1.0878,1.0869,1.0856,1.0842,1.0826,1.0815,1.0799,1.0778,1.0761,1.0748,1.0741,1.0737,1.0748,1.0738,1.0706,1.0701,1.0696,1.0697,1.0747,1.0747,1.0773,1.0774,1.0774]}]]